Lid_Strength_Index
15 13 12 12 12 13 14 14 13 13 13 14 14 14 14 14 13 13 13 12 12 12 12 13 13 13 13 12 12 12 13 13 15 13 12 12 13 13 12 12 11 11 11
16 15 14 14 14 14 14 14 14 14 13 14 14 15 14 14 14 15 14 13 13 13 12 13 13 13 13 13 13 13 13 13 14 16 14 13 12 12 13 13 12 12 12
17 17 16 15 15 15 14 14 14 14 14 14 14 15 14 14 14 13 13 12 12 12 13 14 14 14 14 14 14 14 14 14 14 15 15 12 12 11 12 12 12 12 12
18 18 17 16 15 15 15 15 15 14 15 15 14 14 14 14 13 13 13 13 13 13 13 14 15 15 15 15 14 14 14 14 13 14 14 13 12 12 12 13 14 13 13
19 18 17 16 16 16 16 16 16 15 15 15 14 14 14 13 13 13 13 13 14 14 14 15 15 14 13 13 14 14 14 14 14 14 14 13 13 13 14 14 14 14 13
19 19 18 18 18 18 17 17 17 17 16 16 15 15 14 13 13 12 13 14 15 15 14 13 14 14 14 12 12 12 13 14 14 14 14 14 13 14 13 15 15 15 16
18 18 17 17 17 16 16 16 17 17 16 16 16 15 15 14 13 12 13 14 14 14 14 13 13 13 13 13 12 12 12 12 12 13 14 13 13 13 14 16 16 16 15
18 17 17 17 17 17 17 17 16 15 15 15 15 15 15 14 13 12 13 14 14 13 13 13 13 13 12 13 13 14 13 13 13 13 13 13 12 12 14 14 15 15 15
18 18 18 18 18 17 18 17 16 16 16 15 15 14 15 14 13 12 13 13 13 13 13 12 12 13 12 11 13 14 14 13 12 11 11 11 11 11 12 14 15 16 17
18 18 18 18 18 18 18 17 16 16 16 16 16 15 14 14 13 12 13 14 14 13 12 12 12 12 11 11 13 13 15 14 13 14 14 12 11 12 11 13 14 16 17
19 19 19 18 19 18 17 17 17 17 17 17 17 16 16 15 15 13 13 13 14 14 13 13 12 11 11 11 11 13 13 13 13 14 14 14 14 14 14 13 13 14 16
20 20 20 19 19 18 18 18 18 17 17 17 16 16 15 15 15 14 13 13 13 14 13 13 13 11 11 11 12 12 11 12 13 13 13 14 14 14 13 14 14 14 14
22 22 21 19 19 18 18 18 17 17 17 16 16 16 15 14 14 14 14 14 14 14 13 13 12 12 11 11 11 11 12 13 13 14 14 13 13 13 14 16 16 17 17
22 20 19 19 19 18 18 17 17 17 17 16 16 16 15 15 14 14 13 13 13 13 13 13 13 13 12 13 13 13 13 12 13 13 13 12 12 12 14 14 15 14 15
21 20 19 19 19 19 18 18 18 17 16 17 15 15 15 16 15 13 14 14 14 14 14 14 14 13 14 14 14 13 13 12 12 12 12 12 13 14 14 14 14 15 15
21 19 19 20 18 19 19 18 16 16 16 15 14 14 14 14 14 14 14 14 15 14 16 15 15 14 15 14 14 13 13 13 13 13 13 13 14 14 14 14 14 15 16
23 21 20 20 19 19 19 19 19 17 16 16 15 16 16 14 15 15 14 15 15 16 17 17 16 15 16 15 15 15 15 14 15 14 14 14 14 14 14 15 15 14 16
24 23 22 20 19 19 19 19 19 20 20 19 17 17 17 16 16 16 15 16 19 18 19 19 19 18 18 18 17 17 16 16 16 16 16 16 16 16 16 16 16 16 16
22 20 20 19 19 20 20 20 20 20 20 20 19 18 18 17 17 16 16 20 21 21 20 20 20 20 20 19 19 19 19 19 19 18 18 17 17 18 18 18 17 18 18
22 23 23 20 19 20 20 20 20 20 20 20 20 20 19 21 21 20 18 19 21 21 21 21 20 20 20 21 21 21 20 20 20 20 19 18 17 18 18 19 19 18 18
19 18 21 21 20 20 20 20 20 20 20 20 20 19 17 21 21 20 19 19 20 20 21 21 21 20 20 21 21 21 21 21 21 21 21 21 21 20 19 19 19 20 22
19 19 18 19 19 19 20 19 20 20 20 21 21 20 17 19 20 20 20 20 20 20 20 20 21 21 21 21 22 22 22 22 22 22 21 23 23 22 22 21 21 21 22
20 19 19 19 19 20 21 21 21 21 21 21 21 21 21 21 21 21 21 20 20 20 20 20 21 22 21 22 22 22 22 22 21 22 22 23 23 22 22 22 23 24 24
18 18 19 19 19 19 19 19 20 20 20 20 20 20 20 20 20 20 20 20 20 20 20 20 21 22 22 22 22 22 22 22 23 23 23 23 23 23 23 23 22 25 25
18 19 19 19 19 19 19 19 20 20 20 20 20 20 20 19 20 19 19 19 20 20 20 20 20 21 23 24 24 24 22 21 23 24 25 25 24 25 24 25 24 25 26
18 19 19 19 20 20 20 20 20 20 20 20 20 19 19 19 19 19 19 19 20 20 20 20 20 21 21 22 23 23 23 21 23 23 23 23 23 23 24 25 25 25 27